Location: Berkeley
(37.8716°N, 122.2727°W)
Time: 11:29:40
(UTC-07:00)

Envisat - Pass Details

Date: 19 April 2024
Orbit: 762 x 764 km, 98.3° (Epoch: 29 May)

Event Time Altitude Azimuth Distance (km) Brightness Sun altitude
Rises 05:57:34 0° 351° (N) 3,235 6.4 -6.5°
Reaches altitude 10° 06:01:02 10° 326° (NNW) 2,303 5.3 -5.8°
Maximum altitude 06:03:27 14° 298° (WNW) 2,057 4.8 -5.4°
Drops below altitude 10° 06:05:52 10° 269° (W) 2,296 4.9 -4.9°
Enters shadow 06:07:34 - 254° (WSW) 2,695 5.1 -4.6°
